Satellite: ORSTED
Catalog number: 25635
Epoch time:      103114.97124320
Element set:     888 
Inclination:       96.4614 deg
RA of node:        85.6062 deg
Eccentricity:    0.0145853
Arg of perigee:   120.9965 deg
Mean anomaly:     240.5652 deg
Mean motion:   14.44933411 rev/day
Decay rate:    4.8100E-006 rev/day^2
Epoch rev:           21938
Checksum:              304

Satellite: SUNSAT
Catalog number: 25636
Epoch time:      103113.92934082
Element set:     694 
Inclination:       96.4640 deg
RA of node:        83.3377 deg
Eccentricity:    0.0149806
Arg of perigee:   131.4111 deg
Mean anomaly:     230.0071 deg
Mean motion:   14.43001284 rev/day
Decay rate:    1.8099E-006 rev/day^2
Epoch rev:           21909
Checksum:              287

Satellite: UOSAT 12
Catalog number: 25693
Epoch time:      103115.18507861
Element set:     909 
Inclination:       64.5579 deg
RA of node:       169.9403 deg
Eccentricity:    0.0026303
Arg of perigee:   312.4813 deg
Mean anomaly:      47.4066 deg
Mean motion:   14.76459596 rev/day
Decay rate:    5.0100E-006 rev/day^2
Epoch rev:           21594
Checksum:              320

Satellite: FENGYUN 1C
Catalog number: 25730
Epoch time:      103114.36143181
Element set:     819 
Inclination:       98.6272 deg
RA of node:       136.3173 deg
Eccentricity:    0.0014449
Arg of perigee:   174.3356 deg
Mean anomaly:     185.7982 deg
Mean motion:   14.11741821 rev/day
Decay rate:    5.9000E-007 rev/day^2
Epoch rev:           20377
Checksum:              299

Satellite: ASTRA 1H
Catalog number: 25785
Epoch time:      103108.00000000
Element set:     379 
Inclination:        0.0122 deg
RA of node:       319.8851 deg
Eccentricity:    0.0002995
Arg of perigee:    65.1991 deg
Mean anomaly:     199.8210 deg
Mean motion:    1.00273184 rev/day
Decay rate:    1.1399E-006 rev/day^2
Epoch rev:            1408
Checksum:              262

Satellite: TERRA
Catalog number: 25994
Epoch time:      103115.16635942
Element set:     912 
Inclination:       98.1866 deg
RA of node:       190.3309 deg
Eccentricity:    0.0000934
Arg of perigee:    89.8694 deg
Mean anomaly:     270.2606 deg
Mean motion:   14.57143378 rev/day
Decay rate:    5.5400E-006 rev/day^2
Epoch rev:           17822
Checksum:              442

Satellite: JAWSAT
Catalog number: 26061
Epoch time:      103115.19833515
Element set:     820 
Inclination:      100.1944 deg
RA of node:       184.4071 deg
Eccentricity:    0.0035724
Arg of perigee:    94.2976 deg
Mean anomaly:     266.2289 deg
Mean motion:   14.37905172 rev/day
Decay rate:    4.3099E-006 rev/day^2
Epoch rev:           16996
Checksum:              317

Satellite: OPAL
Catalog number: 26063
Epoch time:      103115.21307438
Element set:     770 
Inclination:      100.2010 deg
RA of node:       181.6595 deg
Eccentricity:    0.0037532
Arg of perigee:   101.9338 deg
Mean anomaly:     258.6052 deg
Mean motion:   14.35509919 rev/day
Decay rate:    1.2900E-006 rev/day^2
Epoch rev:           16980
Checksum:              277

Satellite: ASUSAT
Catalog number: 26065
Epoch time:      103114.82013119
Element set:     788 
Inclination:      100.1983 deg
RA of node:       181.3596 deg
Eccentricity:    0.0037963
Arg of perigee:   104.2910 deg
Mean anomaly:     256.2489 deg
Mean motion:   14.35539744 rev/day
Decay rate:    1.2299E-006 rev/day^2
Epoch rev:           16974
Checksum:              321

Satellite: GOES 11
Catalog number: 26352
Epoch time:      103114.29947435
Element set:     127 
Inclination:        0.3017 deg
RA of node:        98.4983 deg
Eccentricity:    0.0002222
Arg of perigee:   258.7053 deg
Mean anomaly:     208.4849 deg
Mean motion:    1.00273084 rev/day
Decay rate:   -4.7000E-007 rev/day^2
Epoch rev:            1088
Checksum:              277

Satellite: EUTELSAT W4
Catalog number: 26369
Epoch time:      103113.72223602
Element set:     376 
Inclination:        0.0501 deg
RA of node:        16.4342 deg
Eccentricity:    0.0007676
Arg of perigee:    63.7222 deg
Mean anomaly:      67.2619 deg
Mean motion:    1.00275365 rev/day
Decay rate:    1.3899E-006 rev/day^2
Epoch rev:            1069
Checksum:              273

Satellite: FENGYUN 2B
Catalog number: 26382
Epoch time:      103113.64241017
Element set:     837 
Inclination:        0.4131 deg
RA of node:       292.4035 deg
Eccentricity:    0.0001001
Arg of perigee:   268.0950 deg
Mean anomaly:     346.5717 deg
Mean motion:    1.00282270 rev/day
Decay rate:   -3.4699E-006 rev/day^2
Epoch rev:            1035
Checksum:              251

Satellite: EUTELSAT W1
Catalog number: 26487
Epoch time:      103113.86484344
Element set:     389 
Inclination:        0.0412 deg
RA of node:       123.0420 deg
Eccentricity:    0.0005913
Arg of perigee:   237.7569 deg
Mean anomaly:     171.9738 deg
Mean motion:    1.00272009 rev/day
Decay rate:    5.2000E-007 rev/day^2
Epoch rev:             966
Checksum:              274

Satellite: ASTRA 2B
Catalog number: 26494
Epoch time:      103108.00000000
Element set:     262 
Inclination:        0.0178 deg
RA of node:       354.5658 deg
Eccentricity:    0.0005000
Arg of perigee:   302.8402 deg
Mean anomaly:     296.4717 deg
Mean motion:    1.00276704 rev/day
Decay rate:    1.4400E-006 rev/day^2
Epoch rev:             950
Checksum:              226

Satellite: NOAA 16
Catalog number: 26536
Epoch time:      103114.35229154
Element set:     301 
Inclination:       98.9111 deg
RA of node:        62.1943 deg
Eccentricity:    0.0011358
Arg of perigee:   120.2845 deg
Mean anomaly:     239.9479 deg
Mean motion:   14.11941519 rev/day
Decay rate:    2.6899E-006 rev/day^2
Epoch rev:           13329
Checksum:              312

Satellite: SAUDISAT 1A
Catalog number: 26545
Epoch time:      103114.65787872
Element set:     442 
Inclination:       64.5588 deg
RA of node:       191.8467 deg
Eccentricity:    0.0047022
Arg of perigee:   228.4568 deg
Mean anomaly:     131.2511 deg
Mean motion:   14.79150838 rev/day
Decay rate:    1.2110E-005 rev/day^2
Epoch rev:           13884
Checksum:              414

Satellite: UNISAT
Catalog number: 26547
Epoch time:      103113.79740155
Element set:     462 
Inclination:       64.5575 deg
RA of node:       196.4580 deg
Eccentricity:    0.0054440
Arg of perigee:   229.7417 deg
Mean anomaly:     129.8957 deg
Mean motion:   14.80016655 rev/day
Decay rate:    1.6980E-005 rev/day^2
Epoch rev:           13869
Checksum:              337

Satellite: TIUNGSAT 1
Catalog number: 26548
Epoch time:      103113.70116544
Element set:     445 
Inclination:       64.5567 deg
RA of node:       186.9559 deg
Eccentricity:    0.0040488
Arg of perigee:   228.8726 deg
Mean anomaly:     130.8894 deg
Mean motion:   14.81484806 rev/day
Decay rate:    1.3509E-005 rev/day^2
Epoch rev:           13886
Checksum:              344

Satellite: SAUDISAT 1B
Catalog number: 26549
Epoch time:      103113.72602962
Element set:     732 
Inclination:       64.5514 deg
RA of node:       199.1531 deg
Eccentricity:    0.0051621
Arg of perigee:   228.0530 deg
Mean anomaly:     131.6171 deg
Mean motion:   14.78075830 rev/day
Decay rate:    8.2300E-006 rev/day^2
Epoch rev:           13862
Checksum:              281

Satellite: AMSAT OSCAR 40
Catalog number: 26609
Epoch time:      103109.00807478
Element set:     325 
Inclination:        8.5228 deg
RA of node:        53.4139 deg
Eccentricity:    0.7957312
Arg of perigee:   165.7240 deg
Mean anomaly:     252.3808 deg
Mean motion:    1.25596241 rev/day
Decay rate:   -3.4600E-006 rev/day^2
Epoch rev:            1133
Checksum:              368

Satellite: GOES 12
Catalog number: 26871
Epoch time:      103114.23991745
Element set:     934 
Inclination:        0.1675 deg
RA of node:       274.2141 deg
Eccentricity:    0.0000764
Arg of perigee:   131.3316 deg
Mean anomaly:     177.5489 deg
Mean motion:    1.00345818 rev/day
Decay rate:   -2.7099E-006 rev/day^2
Epoch rev:             648
Checksum:              416

Satellite: PCSAT
Catalog number: 26931
Epoch time:      103114.39970460
Element set:     457 
Inclination:       67.0465 deg
RA of node:        88.7070 deg
Eccentricity:    0.0005946
Arg of perigee:   274.2073 deg
Mean anomaly:      85.8350 deg
Mean motion:   14.29150347 rev/day
Decay rate:    1.0100E-006 rev/day^2
Epoch rev:            8161
Checksum:              289

Satellite: SAPPHIRE
Catalog number: 26932
Epoch time:      103114.22995040
Element set:     451 
Inclination:       67.0534 deg
RA of node:        88.8351 deg
Eccentricity:    0.0003963
Arg of perigee:   266.6909 deg
Mean anomaly:      93.3738 deg
Mean motion:   14.29318779 rev/day
Decay rate:    3.9999E-008 rev/day^2
Epoch rev:            8161
Checksum:              452

Satellite: ENVISAT
Catalog number: 27386
Epoch time:      103115.21379638
Element set:     9 
Inclination:       98.5438 deg
RA of node:       182.8282 deg
Eccentricity:    0.0000929
Arg of perigee:    92.9211 deg
Mean anomaly:     267.2078 deg
Mean motion:   14.32249118 rev/day
Decay rate:    1.4099E-006 rev/day^2
Epoch rev:            6014
Checksum:              314

Satellite: IDEFIX/ARIANE 
Catalog number: 27422
Epoch time:      103114.34557836
Element set:     287 
Inclination:       98.6865 deg
RA of node:       193.2153 deg
Eccentricity:    0.0012039
Arg of perigee:   324.7135 deg
Mean anomaly:      35.3248 deg
Mean motion:   14.28004989 rev/day
Decay rate:    1.5599E-006 rev/day^2
Epoch rev:            5070
Checksum:              321

